Terminal Aerodrome Forecast
Issued by NWS Chicago, IL

Home | Current Version | Previous Version | Graphics & Text | Print | Product List | Glossary On
Versions: 1 2 3 4 5 6 7 8 9 10 11 12 13 14 15 16 17 18 19 20 21 22 23 24 25 26
534
FTUS43 KLOT 060920 AAA
TAFRFD
TAF AMD
KRFD 060920Z 0609/0706 13004KT 1SM BR OVC002
     FM061400 12005KT 3SM BR OVC004
     FM061700 26010KT 4SM BR BKN020
     FM061900 27012G18KT P6SM SCT030=

USA.gov is the U.S. government's official web portal to all federal, state and local government web resources and services.